Volver al catálogo

STARLINK-31039

ActivoComunicacionesVLEO
NORAD 58784·PAYLOAD·🇺🇸 United States

Lanzado Jan 14, 2024 desde Vandenberg Space Force Base

Loading…

Próximos Pases (próximas 24 horas)

TLE

ActualizadoSource: CelesTrak SupGP

Época: Sep 14, 2026, 22:01 UTC

1 58784C 24011V   26257.91784722  .00017827  00000+0  52658-3 0  2572
2 58784  53.1579 213.8410 0001420  95.8548 290.0102 15.34389346    10

Sigue STARLINK-31039 en tiempo real con AllMySat

Download on the App Store